Weather Roundup
Issued by NWS

Home | Current Version | Previous Version | Text Only | Print | Product List | Glossary On
Versions: 1 2 3 4 5 6 7 8 9 10 11 12 13 14 15 16 17 18 19 20 21 22 23 24 25 26 27 28 29 30 31 32 33 34 35 36 37 38 39 40 41 42 43 44 45 46 47 48 49 50
000
NZUS93 KARX 202110
HRRWXR

CURRENT HOURLY OBSERVATIONS ACROSS
MUCH OF THE UPPER MISSISSIPPI VALLEY
NATIONAL WEATHER SERVICE LA CROSSE WI
400 PM CDT WED AUG 20 2014


...SOUTHEAST MINNESOTA...


CITY           SKY/WX    TMP DP  RH WIND       PRES   REMARKS
ROCHESTER      PTSUNNY   83  67  58 VRB6      29.87F
ROCHESTER/MAYO FAIR      83  60  45 CALM      29.86S
WINONA         MOSUNNY   79  64  61 CALM      29.86S
AUSTIN         PTSUNNY   81  66  61 S7        29.85F
ALBERT LEA     PTSUNNY   81  66  61 SE9       29.86R
DODGE CENTER   CLOUDY    81  68  65 S5        29.87S
PRESTON        PTSUNNY   80  70  72 CALM      29.87F
OWATONNA       PTSUNNY   82  64  54 SE3       29.85F
FARIBAULT      CLOUDY    84  61  45 CALM      29.85F
$$

...ELSEWHERE IN MINNESOTA...


CITY           SKY/WX    TMP DP  RH WIND       PRES   REMARKS
MINNEAPOLIS    CLOUDY    82  65  56 SE9       29.85S
INTNL FALLS    PTSUNNY   75  58  55 VRB7      29.89R
DULUTH         PTSUNNY   70  57  63 S5        29.91F
RED WING       PTSUNNY   81  64  57 SE5       29.84F
REDWOOD FALLS  PTSUNNY   86  66  51 SE13      29.80F
MANKATO        PTSUNNY   82  66  57 S7        29.83F
WORTHINGTON    MOSUNNY   81  19  10 S12       29.84F
FAIRMONT       MOSUNNY   81  66  61 S12       29.84S
$$

...SOUTHWEST WISCONSIN...


CITY           SKY/WX    TMP DP  RH WIND       PRES   REMARKS
LA CROSSE      SUNNY     83  66  56 N3        29.85S
PRAIRIE DU CHI PTSUNNY   85  63  48 SW6       29.85R
BOSCOBEL       PTSUNNY   87  66  49 CALM      29.85S
LONE ROCK      PTSUNNY   90  65  43 NW7       29.85S HX  92
PLATTEVILLE    PTSUNNY   82  66  57 S7        29.89R
FORT MC COY    MOSUNNY   82  61  49 W8        29.88R
CAMP DOUGLAS   PTSUNNY   82  66  57 VRB1      29.88R
VIROQUA        FAIR      82  65  57 NW3       29.89S
WIS DELLS      PTSUNNY   84  60  43 NW5       29.87S
$$

...ELSEWHERE IN WISCONSIN...


CITY           SKY/WX    TMP DP  RH WIND       PRES   REMARKS
MILWAUKEE      PTSUNNY   76  66  71 SE12      29.87F
MADISON        PTSUNNY   85  65  51 SW5       29.86F
GREEN BAY      PTSUNNY   73  63  70 NW6       29.90S
EAU CLAIRE     MOSUNNY   78  62  57 VRB3      29.88S
BLACK RVR FLS  FAIR      81  61  50 W6        29.87S
MEDFORD        MOSUNNY   69  61  73 CALM      29.91S
WAUSAU         CLOUDY    73  61  65 NW6       29.89F
WIS RAPIDS     PTSUNNY   79  63  57 NW8       29.90S
MARSHFIELD     MOSUNNY   76  62  62 W5        29.90S
RICE LAKE      CLOUDY    73  60  63 CALM      29.91S
$$

...NORTHEAST IOWA...


CITY           SKY/WX    TMP DP  RH WIND       PRES   REMARKS
WATERLOO       CLOUDY    73  67  81 SW5       29.87R
DUBUQUE        PTSUNNY   82  67  60 SW9       29.89R
DECORAH        PTSUNNY   81  68  65 CALM      29.86F
MASON CITY     PTSUNNY   78  66  66 S5        29.88S
CHARLES CITY   CLOUDY    79  70  73 SE7       29.87S
OELWEIN        CLOUDY    77  70  78 SW9       29.88S
$$

...ELSEWHERE IN IOWA...


CITY           SKY/WX    TMP DP  RH WIND       PRES   REMARKS
DES MOINES     CLOUDY    82  70  66 S9        29.85F
IOWA CITY      CLOUDY    76  68  76 SW5       29.93R
FORT DODGE     CLOUDY    73  70  88 S6        29.85R
MARSHALLTOWN   CLOUDY    73  67  81 S12       29.86F
CEDAR RAPIDS   LGT RAIN  74  70  87 SE5       29.86F
$$

...NORTHERN ILLINOIS...


CITY           SKY/WX    TMP DP  RH WIND       PRES   REMARKS
CHICAGO-OHARE  PTSUNNY   85  63  47 W13       29.86F
DUPAGE         MOSUNNY   85  65  51 SW9       29.87F
CHICAGO-MIDWAY PTSUNNY   87  65  47 SW10      29.86F
MOLINE         CLOUDY    76  68  76 SW10G21   29.91R
ROCKFORD       CLOUDY    83  64  52 CALM      29.87F
STERLING       PTSUNNY   82  70  65 SW6       29.89R
PEORIA         CLOUDY    81  68  64 SW12      29.92S
$$

NOTE: "FAIR" INDICATES FEW OR NO CLOUDS BELOW 12,000 FEET WITH NO
SIGNIFICANT WEATHER AND/OR OBSTRUCTIONS TO VISIBILITY. WIND
SPEEDS ARE IN MILES-PER-HOUR.



USA.gov is the U.S. government's official web portal to all federal, state and local government web resources and services.